Back to catalog

USA 560

AliveMilitaryVLEO
NORAD 65706·PAYLOAD·🇺🇸 United States

Launched Sep 22, 2025 from Vandenberg Space Force Base

Loading…

Next Passes (next 24 hours)

TLE

StaleSource: Mike McCants

Epoch: Aug 9, 2026, 20:54 UTC

1 65706U 25213C   26221.87091948 0.00000000  00000-0  00000-0 0    09
2 65706  70.0160 252.1616 0004000 248.2268 111.7732 14.96713800    00

Track USA 560 in real time with AllMySat

Download on the App Store